TimeEST,TemperatureF,Dew PointF,Humidity,Sea Level PressureIn,VisibilityMPH,Wind Direction,Wind SpeedMPH,Gust SpeedMPH,PrecipitationIn,Events,Conditions,WindDirDegrees,DateUTC
12:15 AM,15.8,8.6,73,30.12,10.0,WSW,9.2,-,N/A,,Mostly Cloudy,250,2013-12-10 05:15:00
12:35 AM,15.8,6.8,68,30.13,10.0,WSW,9.2,-,N/A,,Overcast,250,2013-12-10 05:35:00
12:54 AM,15.8,6.8,68,30.14,10.0,West,10.4,-,N/A,,Overcast,260,2013-12-10 05:54:00
1:15 AM,14.0,6.8,73,30.14,10.0,West,11.5,-,N/A,,Overcast,260,2013-12-10 06:15:00
1:35 AM,14.0,6.8,73,30.14,10.0,WSW,9.2,-,N/A,Snow,Light Snow,250,2013-12-10 06:35:00
1:54 AM,12.2,6.8,79,30.13,10.0,WSW,9.2,-,N/A,Snow,Light Snow,250,2013-12-10 06:54:00
2:15 AM,12.2,6.8,79,30.13,10.0,West,8.1,-,N/A,Snow,Light Snow,260,2013-12-10 07:15:00
2:35 AM,12.2,6.8,79,30.13,10.0,SW,6.9,-,N/A,Snow,Light Snow,230,2013-12-10 07:35:00
2:54 AM,10.4,6.8,85,30.12,10.0,SW,9.2,-,N/A,,Mostly Cloudy,230,2013-12-10 07:54:00
3:15 AM,8.6,5.0,85,30.12,10.0,SW,8.1,-,N/A,,Scattered Clouds,230,2013-12-10 08:15:00
3:35 AM,8.6,3.2,79,30.12,10.0,WSW,9.2,-,N/A,,Clear,240,2013-12-10 08:35:00
3:54 AM,8.6,3.2,79,30.11,10.0,West,9.2,-,N/A,,Clear,260,2013-12-10 08:54:00
4:15 AM,8.6,3.2,79,30.11,10.0,WSW,6.9,-,N/A,,Clear,240,2013-12-10 09:15:00
4:35 AM,6.8,3.2,85,30.11,10.0,WSW,8.1,-,N/A,,Clear,240,2013-12-10 09:35:00
4:54 AM,6.8,3.2,85,30.11,10.0,WSW,8.1,-,N/A,,Clear,240,2013-12-10 09:54:00
5:15 AM,6.8,1.4,79,30.10,10.0,SW,8.1,-,N/A,,Clear,230,2013-12-10 10:15:00
5:35 AM,5.0,1.4,85,30.10,10.0,SW,5.8,-,N/A,,Clear,220,2013-12-10 10:35:00
5:54 AM,5.0,1.4,85,30.10,10.0,SW,6.9,-,N/A,,Clear,230,2013-12-10 10:54:00
6:15 AM,3.2,-0.4,85,30.09,10.0,SW,6.9,-,N/A,,Clear,220,2013-12-10 11:15:00
6:35 AM,3.2,-0.4,85,30.09,10.0,SW,8.1,-,N/A,,Clear,230,2013-12-10 11:35:00
6:54 AM,3.2,-0.4,85,30.09,10.0,SW,6.9,-,N/A,,Clear,230,2013-12-10 11:54:00
7:15 AM,3.2,-0.4,85,30.08,10.0,SSW,5.8,-,N/A,,Clear,210,2013-12-10 12:15:00
7:35 AM,3.2,-0.4,85,30.06,10.0,SSW,8.1,-,N/A,,Clear,200,2013-12-10 12:35:00
7:54 AM,3.2,-2.2,78,30.06,10.0,SSW,8.1,-,N/A,,Clear,210,2013-12-10 12:54:00
8:15 AM,3.2,-2.2,78,30.06,10.0,SSW,9.2,-,N/A,,Scattered Clouds,210,2013-12-10 13:15:00
8:35 AM,3.2,-2.2,78,30.06,10.0,SSW,10.4,-,N/A,,Scattered Clouds,210,2013-12-10 13:35:00
8:54 AM,3.2,-2.2,78,30.05,10.0,SSW,10.4,-,N/A,,Mostly Cloudy,210,2013-12-10 13:54:00
9:15 AM,5.0,-2.2,72,30.05,10.0,SSW,8.1,-,N/A,,Overcast,210,2013-12-10 14:15:00
9:35 AM,6.8,-0.4,72,30.04,10.0,SW,12.7,-,N/A,,Overcast,220,2013-12-10 14:35:00
9:54 AM,8.6,-0.4,67,30.04,10.0,SSW,12.7,-,N/A,,Overcast,210,2013-12-10 14:54:00
10:15 AM,10.4,-0.4,62,30.02,10.0,SSW,15.0,-,N/A,,Overcast,200,2013-12-10 15:15:00
10:35 AM,12.2,1.4,62,30.01,10.0,SSW,17.3,-,N/A,,Overcast,210,2013-12-10 15:35:00
10:55 AM,12.2,1.4,62,30.01,10.0,SSW,16.1,-,N/A,,Overcast,210,2013-12-10 15:55:00
11:14 AM,14.0,3.2,62,29.99,10.0,SSW,18.4,23.0,N/A,,Overcast,210,2013-12-10 16:14:00
11:35 AM,15.8,3.2,58,30.00,10.0,SW,18.4,21.9,N/A,,Mostly Cloudy,230,2013-12-10 16:35:00
11:55 AM,17.6,3.2,53,29.99,10.0,SW,21.9,29.9,N/A,,Overcast,230,2013-12-10 16:55:00
12:15 PM,17.6,5.0,58,29.98,10.0,WSW,23.0,31.1,N/A,,Overcast,240,2013-12-10 17:15:00
12:34 PM,17.6,6.8,63,29.97,10.0,WSW,20.7,28.8,N/A,,Overcast,250,2013-12-10 17:34:00
12:55 PM,17.6,8.6,68,29.98,10.0,WSW,23.0,29.9,N/A,,Mostly Cloudy,240,2013-12-10 17:55:00
1:15 PM,17.6,8.6,68,29.98,10.0,WSW,17.3,27.6,N/A,,Overcast,250,2013-12-10 18:15:00
1:34 PM,19.4,8.6,63,29.98,10.0,WSW,24.2,29.9,N/A,Snow,Light Snow,250,2013-12-10 18:34:00
1:55 PM,19.4,8.6,63,29.98,10.0,West,20.7,26.5,N/A,,Mostly Cloudy,260,2013-12-10 18:55:00
2:15 PM,19.4,10.4,68,29.97,10.0,West,15.0,28.8,N/A,,Mostly Cloudy,260,2013-12-10 19:15:00
2:35 PM,21.2,8.6,58,29.98,10.0,WSW,20.7,28.8,N/A,,Mostly Cloudy,250,2013-12-10 19:35:00
2:55 PM,21.2,10.4,63,29.98,10.0,WSW,19.6,25.3,N/A,,Mostly Cloudy,250,2013-12-10 19:55:00
3:15 PM,21.2,10.4,63,30.00,10.0,WSW,20.7,27.6,N/A,,Overcast,250,2013-12-10 20:15:00
3:35 PM,21.2,10.4,63,30.00,10.0,WSW,18.4,27.6,N/A,,Overcast,250,2013-12-10 20:35:00
3:55 PM,21.2,8.6,58,30.02,10.0,West,20.7,28.8,N/A,,Mostly Cloudy,260,2013-12-10 20:55:00
4:15 PM,19.4,8.6,63,30.04,10.0,WSW,21.9,28.8,N/A,,Mostly Cloudy,250,2013-12-10 21:15:00
4:35 PM,21.2,10.4,63,30.04,10.0,West,16.1,24.2,N/A,,Mostly Cloudy,260,2013-12-10 21:35:00
4:55 PM,19.4,10.4,68,30.05,10.0,WSW,13.8,-,N/A,,Overcast,250,2013-12-10 21:55:00
5:15 PM,19.4,10.4,68,30.06,10.0,WSW,17.3,21.9,N/A,,Overcast,250,2013-12-10 22:15:00
5:35 PM,19.4,10.4,68,30.07,10.0,WSW,13.8,19.6,N/A,,Overcast,250,2013-12-10 22:35:00
5:55 PM,19.4,10.4,68,30.07,10.0,WSW,15.0,21.9,N/A,,Overcast,250,2013-12-10 22:55:00
6:15 PM,19.4,10.4,68,30.08,10.0,WSW,12.7,-,N/A,,Overcast,250,2013-12-10 23:15:00
6:34 PM,19.4,10.4,68,30.09,10.0,WSW,12.7,18.4,N/A,,Overcast,250,2013-12-10 23:34:00
6:55 PM,19.4,10.4,68,30.11,10.0,WSW,12.7,21.9,N/A,,Mostly Cloudy,250,2013-12-10 23:55:00
7:15 PM,19.4,10.4,68,30.11,10.0,West,10.4,19.6,N/A,,Mostly Cloudy,260,2013-12-11 00:15:00
7:34 PM,17.6,8.6,68,30.12,10.0,WSW,12.7,-,N/A,,Mostly Cloudy,250,2013-12-11 00:34:00
7:55 PM,17.6,8.6,68,30.12,10.0,WSW,11.5,17.3,N/A,,Scattered Clouds,250,2013-12-11 00:55:00
8:15 PM,17.6,8.6,68,30.12,10.0,WSW,11.5,-,N/A,,Scattered Clouds,250,2013-12-11 01:15:00
8:34 PM,17.6,8.6,68,30.13,10.0,WSW,12.7,-,N/A,,Clear,240,2013-12-11 01:34:00
8:55 PM,17.6,8.6,68,30.14,10.0,WSW,10.4,-,N/A,,Clear,250,2013-12-11 01:55:00
9:15 PM,17.6,8.6,68,30.16,10.0,WSW,12.7,18.4,N/A,,Clear,250,2013-12-11 02:15:00
9:34 PM,17.6,8.6,68,30.17,10.0,West,12.7,-,N/A,,Clear,260,2013-12-11 02:34:00
9:55 PM,17.6,8.6,68,30.17,10.0,WSW,11.5,-,N/A,,Clear,250,2013-12-11 02:55:00
10:15 PM,17.6,10.4,73,30.19,10.0,WSW,12.7,17.3,N/A,,Clear,250,2013-12-11 03:15:00
10:35 PM,17.6,10.4,73,30.18,10.0,WSW,11.5,-,N/A,,Clear,250,2013-12-11 03:35:00
10:55 PM,17.6,10.4,73,30.19,10.0,WSW,9.2,-,N/A,,Clear,250,2013-12-11 03:55:00
11:15 PM,17.6,10.4,73,30.18,10.0,WSW,10.4,-,N/A,,Scattered Clouds,250,2013-12-11 04:15:00
11:35 PM,17.6,10.4,73,30.19,10.0,WSW,12.7,-,N/A,,Mostly Cloudy,240,2013-12-11 04:35:00
11:55 PM,17.6,10.4,73,30.20,10.0,WSW,12.7,-,N/A,,Mostly Cloudy,240,2013-12-11 04:55:00